Wind_Speed
5 5 5 5 2 3 8 5 3 1 1 9 6 6 4 6 5 0 9 7 8 9 7 11 9 7 5 5 7 9 10 10 10 9 9 9 10 11 13 14 14 14 12 8 7 10 10 10 10
4 1 3 6 2 5 4 2 6 4 9 6 2 3 3 1 8 4 4 5 9 9 7 9 8 6 5 7 8 9 9 8 8 8 8 9 9 9 10 12 13 15 16 14 10 9 9 10 10
2 3 3 3 4 7 4 5 6 10 7 2 3 1 3 4 5 5 7 6 10 9 9 7 7 6 6 8 9 8 7 7 8 8 9 9 9 10 10 11 12 13 14 16 17 15 12 9 10
4 1 6 3 9 9 5 5 7 1 3 2 3 6 5 2 4 5 5 8 10 11 10 8 7 7 8 8 7 7 7 8 8 9 9 10 11 12 12 12 12 13 14 16 17 19 20 10 11
4 5 4 5 10 12 3 5 5 5 2 4 5 2 4 4 4 5 4 9 11 11 10 8 7 8 8 7 7 7 7 8 9 9 10 12 13 13 14 14 14 14 15 16 17 19 20 23 14
4 4 4 7 10 4 2 6 6 5 9 6 1 8 1 4 4 4 5 9 11 11 9 7 8 8 7 6 7 8 8 9 10 10 12 13 14 16 16 17 17 16 16 17 18 19 20 19 18
2 3 6 11 8 6 4 7 4 6 8 2 6 3 1 5 5 5 6 10 12 12 10 7 8 7 6 7 8 8 9 9 10 11 13 14 16 17 18 19 20 19 18 18 19 19 20 21 20
4 2 4 4 5 3 6 4 2 5 3 3 3 3 3 10 7 7 9 12 13 13 10 8 8 6 7 7 7 8 8 9 11 12 14 16 18 20 20 20 20 21 21 20 19 18 19 20 22
3 3 4 6 3 3 5 4 1 5 8 5 4 5 4 9 7 8 12 13 13 13 11 10 8 7 8 9 6 8 9 10 12 14 16 17 19 20 21 21 22 21 20 20 19 18 17 17 19
5 3 3 4 5 6 12 5 10 5 10 13 13 14 18 14 11 11 13 14 14 14 12 11 9 9 8 8 8 9 10 11 13 16 18 19 21 22 23 23 23 21 19 16 15 15 15 14 14
7 4 3 7 8 6 6 10 9 5 7 19 7 9 20 13 10 11 13 13 12 12 12 12 11 9 8 8 9 9 11 12 14 18 20 21 22 22 21 20 19 18 17 14 12 12 11 12 11
4 12 9 4 2 3 5 11 8 15 20 22 21 14 7 11 13 13 14 13 13 13 13 12 12 10 8 9 8 9 12 14 16 18 22 22 20 20 17 15 15 15 14 14 11 8 8 13 12
6 8 9 8 10 9 11 14 11 24 29 24 23 19 19 16 15 14 14 15 16 16 16 15 12 10 9 8 11 11 13 15 17 19 19 21 21 17 15 15 13 14 13 11 11 7 7 13 9
4 8 13 10 8 5 5 8 6 9 4 5 10 13 16 14 16 14 16 17 19 19 18 16 12 10 10 9 11 12 13 15 17 18 19 18 16 15 14 14 11 9 10 13 13 10 9 8 6
6 6 9 11 2 1 2 8 8 16 14 13 10 9 10 11 11 15 16 17 19 18 17 16 13 11 10 10 10 12 13 14 16 17 15 15 15 13 11 12 8 11 12 9 11 9 7 6 5
3 2 3 2 5 2 2 7 3 5 5 8 10 11 14 13 13 12 15 16 19 17 19 16 14 11 10 10 10 10 12 14 15 13 12 13 12 11 9 9 10 9 8 10 11 7 7 8 7
5 4 5 4 5 1 5 6 4 1 5 12 16 17 13 13 13 11 13 15 16 17 17 15 13 10 10 9 8 10 12 13 11 9 10 12 13 11 10 11 11 11 14 13 7 5 8 7 8
4 4 4 4 4 5 6 16 15 28 22 19 16 14 5 6 12 14 13 14 17 17 15 13 12 10 9 7 8 9 10 8 8 8 8 7 10 11 11 6 9 13 15 9 7 9 6 7 5
4 6 7 3 3 0 6 14 17 16 20 16 17 7 6 9 11 13 11 13 16 16 14 12 10 9 8 5 6 9 8 8 6 6 7 8 9 8 8 9 11 16 11 9 9 10 4 6 5
2 5 6 6 4 1 7 15 23 14 10 1 11 11 13 12 10 13 16 17 17 15 12 11 10 9 6 5 6 8 6 5 5 4 6 9 7 7 8 10 14 14 11 10 12 8 4 8 9
6 7 5 4 1 9 6 8 5 2 7 9 6 10 10 12 15 14 16 16 16 14 12 10 9 9 4 5 5 5 2 3 2 3 7 6 5 5 4 9 13 11 12 12 12 7 4 8 14
5 2 5 1 2 3 2 4 8 1 5 6 11 9 12 12 12 15 16 17 15 14 12 11 10 7 4 5 5 3 0 2 2 2 3 4 4 5 5 8 11 11 11 11 9 4 4 10 16
2 2 4 3 3 4 4 1 7 3 6 4 9 12 13 13 14 16 17 16 15 14 13 11 9 6 5 4 5 1 3 3 1 1 3 4 4 4 4 8 10 11 11 13 6 5 6 7 11
7 5 5 3 2 1 7 5 5 3 2 3 8 10 11 12 13 14 15 16 16 14 13 11 9 6 5 4 4 3 3 2 2 1 3 3 3 3 5 7 9 10 12 14 8 5 8 12 9
2 4 2 3 1 5 1 2 6 3 4 2 2 13 11 11 14 15 17 18 15 13 12 10 9 6 5 4 3 4 4 3 3 1 1 2 1 2 4 6 8 8 11 13 9 6 8 8 7
7 4 4 6 4 3 2 6 4 3 5 2 4 7 10 10 12 14 15 16 13 12 11 9 9 7 6 5 4 4 4 4 4 3 1 1 3 1 2 4 7 8 9 9 9 7 6 8 9
5 4 2 5 2 3 5 5 4 6 7 9 7 6 7 9 10 13 14 14 13 11 11 9 9 8 7 6 5 4 5 5 4 4 2 2 1 3 1 2 5 7 9 9 10 9 9 10 9
1 1 4 2 3 4 3 3 5 6 7 7 8 10 5 5 8 10 12 13 13 11 11 10 10 9 8 7 6 5 6 6 3 3 2 3 3 3 3 1 3 6 7 8 8 10 10 9 8
2 2 3 3 3 4 2 3 5 9 8 7 7 10 10 6 5 9 11 12 13 12 11 11 11 11 9 8 6 5 6 7 5 3 3 2 3 2 4 1 1 4 4 5 5 9 9 8 11
4 3 6 4 4 1 2 3 7 8 7 10 9 9 7 6 3 4 8 12 14 15 14 13 12 12 10 10 7 6 8 8 8 5 4 4 3 3 5 2 2 4 6 7 8 9 10 13 12
Wind_Direction
292 328 341 312 262 210 262 254 28 26 265 50 30 3 349 298 334 84 170 159 190 218 201 195 202 216 236 267 286 293 293 289 287 285 281 278 277 277 274 268 262 259 255 253 279 277 267 258 253
285 105 351 274 247 257 261 62 108 210 81 71 20 310 278 274 68 109 196 172 173 223 206 189 203 223 257 281 293 294 291 291 292 294 295 296 291 285 280 277 271 265 260 255 249 265 269 259 254
202 132 253 202 223 254 10 69 27 72 41 6 351 78 323 60 81 119 223 189 187 206 214 193 214 244 269 287 292 291 294 297 299 302 306 306 304 300 294 286 281 277 270 261 254 254 259 263 252
82 211 271 272 266 265 303 29 78 122 143 198 336 304 115 239 127 197 240 180 189 197 224 208 233 258 276 283 285 287 293 300 306 311 312 314 314 314 309 303 295 287 281 274 265 255 252 257 252
139 267 246 220 246 259 50 341 4 301 297 148 163 260 124 168 271 244 200 178 196 208 221 220 240 264 272 278 280 288 295 300 306 308 314 316 315 311 308 303 296 287 279 274 271 265 260 254 244
242 262 269 236 248 139 90 24 350 283 285 102 98 255 166 200 290 216 195 175 204 220 229 231 251 259 270 278 284 290 297 304 308 311 313 313 313 311 308 304 298 292 284 276 268 264 266 262 253
264 234 255 283 322 326 53 39 330 315 324 263 175 303 113 187 205 208 193 184 200 228 236 244 254 263 267 275 286 297 303 305 308 311 312 314 313 310 310 308 303 302 294 286 277 269 263 262 253
280 287 280 271 266 28 46 8 357 325 326 348 128 258 76 169 219 197 188 199 206 230 230 249 262 262 265 279 293 297 302 306 310 312 312 315 317 316 316 313 310 303 297 290 282 274 266 259 256
255 276 263 275 20 27 103 345 119 287 285 290 244 270 260 220 230 206 196 209 210 230 229 236 252 260 280 295 299 298 301 303 307 307 312 318 320 319 316 314 309 305 297 291 288 282 273 264 258
223 237 272 45 15 357 344 346 319 321 293 274 251 244 246 253 251 227 220 220 219 229 227 236 240 252 269 285 300 300 304 306 311 310 317 321 321 320 318 316 313 309 303 297 287 281 279 273 265
201 226 51 33 28 2 308 303 289 258 271 251 339 17 223 236 247 235 238 236 238 234 233 234 241 249 265 274 293 298 301 306 313 314 319 320 320 317 315 312 310 306 308 306 289 282 281 262 251
269 240 277 326 43 316 289 322 289 255 247 267 289 277 236 244 246 241 229 227 228 229 235 233 232 248 259 271 285 286 293 306 308 312 317 319 317 317 316 313 312 316 315 314 317 296 278 279 240
239 271 282 277 265 257 275 264 262 268 266 262 268 259 259 236 242 233 232 221 214 225 225 232 229 242 257 266 274 281 292 299 310 315 315 320 321 320 321 323 329 333 338 333 306 291 288 297 239
1 310 291 285 261 243 242 266 317 261 185 246 255 242 248 251 225 228 223 217 213 223 222 229 227 236 256 268 273 285 291 310 311 315 322 320 322 324 326 323 323 337 327 309 320 300 273 288 221
301 299 278 243 205 204 300 278 224 271 262 260 259 259 231 235 224 226 232 225 220 220 217 227 227 232 256 264 277 284 306 308 315 320 321 325 334 336 335 333 357 360 329 328 318 313 302 291 251
264 225 292 79 126 190 202 270 309 146 216 255 260 238 237 239 241 226 219 228 215 212 211 223 225 232 251 261 273 296 305 314 321 323 334 340 341 334 334 354 17 345 334 329 317 312 300 289 256
204 271 204 182 204 120 194 290 295 266 218 245 250 265 263 228 211 209 213 218 207 209 216 217 219 231 248 259 282 298 309 318 323 337 341 343 347 353 32 18 342 352 341 336 339 330 291 295 270
211 223 247 277 155 203 260 262 269 278 275 272 275 269 254 220 190 197 205 201 196 205 215 208 215 229 240 262 289 304 317 329 335 340 347 352 347 24 15 360 348 347 343 360 20 5 325 296 225
17 330 312 330 120 333 256 278 282 269 274 270 256 141 145 144 172 176 189 186 184 202 204 204 214 225 238 269 290 309 333 329 339 355 357 10 24 30 43 21 6 356 5 18 16 7 17 32 138
188 270 274 260 83 160 282 293 279 281 260 205 135 148 156 161 174 179 177 179 190 198 194 195 204 219 243 278 308 310 318 324 325 7 23 26 40 23 20 19 9 7 19 32 18 13 37 129 146
217 220 248 288 314 228 285 274 270 113 112 122 122 138 169 169 168 168 167 172 183 190 188 191 203 224 237 272 302 310 347 328 293 17 38 23 39 26 20 16 16 11 13 20 23 37 48 118 124
226 239 231 38 341 280 212 284 318 138 167 152 153 161 154 163 164 167 170 169 183 186 186 193 210 233 237 271 302 320 341 287 304 321 44 23 33 32 31 19 26 4 8 9 19 61 88 141 117
166 99 116 163 227 10 239 205 261 174 68 85 157 155 151 164 170 171 169 178 185 192 190 196 215 232 245 275 298 250 233 263 238 334 47 30 30 31 46 17 21 19 10 18 11 102 123 134 149
138 98 73 59 60 345 236 170 285 61 35 70 111 133 144 160 168 175 179 182 194 192 196 204 218 228 245 274 287 235 240 221 193 58 52 16 21 17 33 29 28 16 10 12 35 115 136 144 159
229 128 28 354 18 224 58 85 250 68 50 10 0 144 153 165 171 181 187 191 197 193 201 212 229 230 250 268 280 239 234 212 198 190 77 338 320 22 27 22 36 32 26 26 27 95 144 150 134
184 177 166 196 189 201 76 231 262 72 41 174 85 99 147 163 177 193 200 199 202 195 205 219 237 244 253 267 272 233 225 221 214 226 154 339 318 267 35 26 33 28 28 30 40 83 132 169 160
192 194 161 102 47 57 207 238 43 69 57 80 81 115 151 169 187 199 206 203 210 208 211 223 238 251 256 267 274 238 217 232 227 241 208 113 295 277 316 31 34 43 41 49 70 107 101 135 155
237 270 93 339 152 224 292 266 174 101 89 75 55 56 65 180 200 202 207 206 219 215 216 227 243 254 256 263 271 255 221 227 223 247 205 142 135 273 274 26 32 78 59 59 80 105 120 132 141
177 202 223 151 160 179 185 259 119 121 107 95 65 55 54 52 219 218 219 222 226 229 223 228 241 256 260 261 265 256 233 220 216 202 226 215 177 221 258 250 53 96 59 83 136 112 142 133 156
323 229 182 144 225 147 137 245 129 110 98 89 66 32 20 34 54 225 238 240 236 238 237 233 236 254 261 259 259 256 235 225 216 213 239 245 241 197 254 240 154 111 90 98 144 128 126 136 133
Height
1504 1505 1506 1507 1514 1504 1503 1487 1478 1483 1485 1486 1489 1491 1494 1492 1492 1505 1501 1501 1500 1498 1499 1500 1502 1504 1505 1506 1507 1508 1508 1508 1508 1508 1508 1508 1509 1508 1508 1509 1510 1511 1512 1512 1513 1513 1513 1514 1515
1504 1505 1507 1506 1513 1511 1494 1478 1483 1484 1485 1489 1490 1491 1492 1492 1494 1496 1499 1500 1500 1497 1499 1500 1502 1503 1505 1505 1506 1506 1506 1506 1507 1507 1506 1507 1507 1508 1507 1507 1507 1508 1509 1510 1511 1512 1512 1512 1513
1504 1505 1508 1505 1506 1507 1495 1482 1483 1485 1488 1490 1491 1492 1493 1494 1496 1497 1498 1498 1498 1497 1497 1500 1501 1503 1504 1505 1505 1505 1505 1505 1506 1506 1506 1505 1505 1505 1506 1506 1506 1506 1506 1507 1508 1509 1510 1511 1511
1505 1508 1507 1508 1504 1488 1483 1482 1484 1487 1490 1491 1492 1492 1493 1494 1496 1496 1497 1497 1498 1498 1497 1500 1501 1503 1503 1504 1504 1504 1504 1504 1505 1505 1504 1504 1505 1505 1505 1504 1504 1505 1505 1505 1505 1505 1506 1508 1509
1505 1505 1507 1505 1499 1486 1480 1484 1486 1487 1487 1489 1492 1492 1492 1493 1495 1495 1496 1497 1498 1497 1498 1499 1500 1501 1502 1502 1502 1502 1503 1503 1504 1504 1504 1504 1503 1503 1502 1502 1502 1502 1502 1502 1502 1502 1503 1504 1505
1505 1503 1507 1504 1488 1480 1482 1485 1487 1488 1488 1489 1492 1493 1493 1493 1493 1494 1496 1498 1498 1498 1498 1500 1500 1500 1501 1502 1502 1502 1502 1503 1503 1503 1503 1502 1502 1501 1500 1499 1498 1498 1498 1498 1498 1498 1498 1499 1501
1504 1502 1503 1497 1489 1484 1484 1487 1489 1488 1487 1488 1489 1492 1492 1492 1492 1494 1495 1498 1498 1497 1498 1500 1501 1501 1501 1501 1501 1501 1501 1501 1501 1501 1501 1501 1500 1499 1498 1497 1495 1495 1495 1494 1495 1495 1495 1495 1497
1503 1500 1497 1489 1492 1489 1489 1490 1490 1490 1489 1490 1489 1491 1492 1492 1492 1493 1494 1496 1498 1497 1498 1498 1499 1501 1501 1500 1500 1500 1500 1500 1500 1499 1498 1498 1497 1496 1495 1494 1493 1492 1491 1490 1490 1490 1491 1491 1492
1503 1505 1501 1490 1486 1488 1488 1490 1489 1489 1490 1490 1489 1490 1490 1490 1491 1492 1493 1494 1495 1496 1498 1498 1498 1499 1500 1500 1500 1500 1499 1498 1498 1497 1496 1496 1495 1494 1492 1491 1489 1488 1487 1486 1486 1486 1486 1487 1488
1502 1502 1492 1489 1488 1490 1490 1491 1491 1490 1488 1487 1487 1488 1486 1487 1489 1490 1490 1490 1491 1494 1496 1497 1498 1498 1499 1499 1499 1499 1498 1497 1496 1495 1495 1494 1492 1490 1489 1487 1485 1484 1483 1483 1482 1482 1483 1483 1484
1498 1498 1488 1489 1491 1493 1492 1490 1489 1489 1487 1481 1485 1485 1483 1484 1486 1487 1489 1490 1491 1492 1494 1496 1497 1498 1498 1498 1497 1497 1497 1496 1495 1493 1492 1491 1489 1488 1486 1484 1482 1481 1480 1479 1479 1478 1479 1480 1481
1498 1491 1490 1490 1491 1493 1491 1489 1487 1485 1481 1481 1482 1483 1483 1481 1483 1484 1487 1489 1489 1490 1492 1493 1493 1496 1497 1497 1498 1496 1496 1495 1493 1492 1490 1488 1486 1484 1482 1481 1480 1479 1478 1478 1477 1476 1477 1477 1478
1497 1492 1490 1489 1490 1490 1489 1487 1486 1476 1475 1475 1477 1478 1477 1480 1480 1480 1482 1484 1486 1486 1487 1488 1492 1494 1495 1495 1495 1495 1495 1493 1492 1491 1488 1486 1484 1482 1480 1479 1478 1478 1478 1477 1476 1475 1475 1475 1477
1493 1492 1489 1487 1487 1487 1487 1482 1484 1468 1469 1471 1471 1472 1473 1474 1477 1479 1480 1482 1483 1484 1485 1487 1490 1492 1493 1494 1494 1494 1493 1494 1491 1489 1487 1485 1483 1481 1479 1477 1477 1477 1477 1475 1475 1474 1474 1474 1475
1493 1494 1487 1482 1483 1486 1486 1480 1475 1464 1468 1468 1469 1469 1470 1471 1474 1476 1479 1480 1480 1481 1484 1486 1488 1489 1491 1492 1492 1493 1494 1492 1490 1488 1485 1483 1482 1479 1477 1477 1476 1475 1475 1474 1473 1473 1473 1473 1475
1494 1491 1492 1483 1485 1486 1488 1479 1462 1463 1466 1467 1466 1466 1466 1467 1469 1471 1474 1476 1478 1480 1480 1484 1486 1488 1489 1490 1490 1491 1491 1490 1489 1487 1485 1483 1482 1480 1478 1478 1477 1475 1474 1473 1472 1471 1472 1473 1473
1492 1498 1488 1484 1484 1485 1488 1479 1463 1463 1464 1464 1464 1464 1465 1464 1465 1469 1469 1473 1476 1478 1480 1482 1485 1487 1488 1488 1489 1489 1489 1489 1487 1487 1485 1484 1482 1481 1480 1479 1479 1477 1474 1471 1471 1471 1471 1472 1471
1487 1493 1483 1483 1484 1484 1485 1476 1467 1461 1460 1459 1459 1461 1461 1464 1463 1465 1467 1471 1476 1476 1479 1481 1484 1486 1486 1487 1488 1488 1488 1487 1486 1486 1485 1484 1483 1481 1481 1480 1479 1477 1474 1471 1470 1471 1470 1470 1471
1482 1486 1487 1477 1483 1482 1481 1473 1460 1456 1454 1453 1454 1454 1458 1462 1463 1464 1466 1471 1475 1475 1476 1481 1483 1485 1485 1486 1486 1487 1486 1486 1485 1485 1484 1484 1482 1482 1481 1481 1479 1477 1474 1472 1471 1471 1470 1470 1471
1482 1488 1489 1480 1483 1484 1479 1471 1452 1451 1449 1448 1451 1456 1456 1460 1462 1463 1466 1469 1474 1476 1477 1478 1482 1484 1485 1485 1485 1486 1485 1486 1485 1483 1483 1483 1482 1482 1482 1481 1480 1477 1475 1473 1472 1471 1471 1471 1472
1484 1486 1484 1486 1484 1481 1482 1472 1451 1445 1447 1449 1453 1457 1456 1458 1461 1463 1466 1470 1473 1476 1476 1479 1482 1483 1483 1483 1484 1484 1484 1484 1484 1483 1482 1482 1481 1481 1481 1480 1479 1478 1476 1474 1473 1473 1473 1473 1472
1485 1477 1479 1484 1491 1494 1479 1493 1455 1443 1448 1450 1453 1457 1458 1459 1461 1464 1467 1469 1471 1475 1476 1477 1480 1482 1482 1481 1482 1482 1482 1482 1482 1483 1482 1483 1483 1483 1482 1480 1478 1478 1476 1474 1473 1474 1475 1476 1476
1480 1479 1480 1483 1489 1493 1484 1493 1462 1442 1454 1454 1454 1455 1457 1460 1462 1464 1467 1469 1470 1474 1475 1475 1478 1482 1482 1482 1481 1480 1481 1482 1482 1483 1482 1483 1483 1483 1482 1481 1478 1477 1477 1474 1474 1475 1477 1478 1479
1480 1483 1485 1487 1492 1515 1487 1485 1472 1458 1457 1456 1455 1457 1458 1461 1463 1466 1468 1469 1470 1473 1476 1475 1476 1479 1480 1480 1480 1480 1480 1481 1481 1482 1482 1483 1483 1484 1484 1482 1480 1478 1477 1475 1475 1476 1477 1480 1483
1481 1486 1512 1513 1522 1509 1485 1491 1468 1456 1456 1457 1456 1456 1459 1460 1463 1465 1466 1467 1469 1472 1475 1476 1476 1478 1479 1478 1479 1479 1480 1480 1481 1481 1481 1482 1483 1483 1484 1482 1481 1480 1478 1476 1475 1475 1478 1481 1483
1482 1479 1493 1499 1503 1494 1490 1491 1463 1455 1454 1456 1457 1457 1458 1460 1461 1464 1466 1467 1468 1471 1474 1476 1476 1477 1478 1477 1477 1478 1479 1480 1480 1480 1480 1481 1483 1483 1483 1482 1481 1481 1479 1478 1476 1476 1477 1479 1483
1479 1485 1476 1495 1514 1499 1477 1464 1460 1458 1457 1458 1459 1459 1459 1459 1461 1462 1464 1465 1467 1471 1473 1474 1474 1476 1477 1477 1476 1477 1478 1479 1479 1480 1480 1479 1482 1484 1483 1483 1482 1481 1481 1480 1479 1479 1479 1480 1482
1477 1474 1485 1491 1499 1499 1479 1460 1462 1464 1463 1462 1462 1461 1461 1460 1461 1461 1463 1464 1466 1469 1472 1472 1473 1474 1476 1476 1476 1476 1477 1478 1479 1480 1481 1479 1480 1482 1483 1483 1482 1482 1482 1482 1482 1483 1484 1485 1486
1480 1479 1472 1471 1478 1483 1488 1471 1457 1460 1462 1463 1463 1463 1461 1461 1461 1462 1462 1463 1464 1467 1469 1471 1472 1472 1474 1475 1474 1474 1475 1476 1478 1478 1480 1481 1480 1481 1483 1483 1483 1483 1483 1483 1483 1484 1486 1488 1489
1473 1464 1463 1475 1482 1483 1485 1476 1457 1459 1462 1463 1464 1464 1462 1461 1461 1461 1461 1463 1462 1465 1467 1468 1469 1470 1472 1473 1473 1473 1474 1475 1476 1477 1478 1479 1481 1480 1481 1484 1484 1484 1484 1484 1485 1486 1487 1490 1492